CZ-6A DEB

Satellite information

Favourite Embed

Satellite Type and Status

DEBRISIN ORBIT

Key statistics

Satellite CZ-6A DEB at a glance.

Uptime

1024

Days in orbit

Revolutions

≈ 14.2

Per day

Orbit

SSO

Sun Synchronous Orbit

Inclination

98.8

Latest

Satellite identification and parameters

Extended collection of information and parameters for CZ-6A DEB.

Object identification

Identified? True

Debris? True

Object name: CZ-6A DEB

International designator: 2022-151CL

Object number (NORAD): 54341

Object ID (CCSDS): 54341

Country: PEOPLES REPUBLIC OF CHINA (PRC)

Current information (Y/N): Y

RCS size: SMALL

Orbital parameters

Period: 101.216 minutes

Inclination: 98.7856 deg

SMA: 7194.356 km

Apoapsis: 851.143 km

Periapsis: 781.299 km

RAAN: 257.9861 deg

Eccentricy: 0.00485407

Argument of periapsis: 102.9054 deg

Mean anomaly: 257.7551 deg

Mean motion: 14.22705181 rev/day

Mean motion (dot): 0.0000212 rev/day2

B* drag term: 0.00095438333 1/REarth

Two-line elements (TLE)

Creation date: Aug. 31, 2025, 2:26 a.m.

Reference frame: TEME

Reference center: EARTH

Epoch: Aug. 30, 2025, 2:17 p.m. UTC

TLE line 0: 0 CZ-6A DEB

TLE line 1: 1 54341U 22151CL 25242.59526800 .00002120 00000-0 95438-3 0 9995

TLE line 2: 2 54341 98.7856 257.9861 0048541 102.9054 257.7551 14.22705181144588

Live tracking on map

Real-time ground track for satellite CZ-6A DEB.

In-orbit conjunctions

A list of the most updated potential collisions computed for object CZ-6A DEB.

Target Orbit TCA Probability of collision Miss distance Type
CZ-6A DEB LEO 2025-04-30 09:58:43 0.0001020394 233.0 (m) DEBRIS
SL-3 R/B LEO 2025-04-22 04:12:17 0.000103641 76.0 (m) ROCKET BODY
CZ-4B DEB SSO 2024-11-12 22:41:44 0.0004035651 626.0 (m) DEBRIS
METEOR 2-5 DEB LEO 2024-08-22 07:38:47 0.0002123689 44.0 (m) DEBRIS

Associated space launch

Chinese satellite reported for atmospheric/ocean/environmental/spatial parameter research purposes, details TBD.

CZ-6A DEB was lifted into orbit during the mission ‘Long March 6A | Yunhai 3’, on board a Long March 6A space rocket.

The launch took place on Nov. 11, 2022, 10:52 p.m. from Launch Complex 9A.

For more information about the launch, click the button.

Launch to space Long March 6A | Yunhai 3
Long March 6A | Yunhai 3

Agency: N/A

Status: Launch Successful

Launch date: Nov. 11, 2022, 10:52 p.m. UTC

Rocket: Long March 6A

Launch pad: Launch Complex 9A

Location: Taiyuan Satellite Launch Center, People's Republic of China

...

Latest news about this satellite

There are no fresh news available about this satellite. Check back as we update our databases every day.


Newsletter sign-up

Weekly statistics, charts and insights to help you stay on top of the space industry.